WJA2778 CYKF-CYWG

Flight info

Callsign WJA2778
Flight time 1h 53m
Altitude 33000
Route MUSIT DCT ULUTO Q917 SSM DCT YQT DCT DUTEG DCT GERTY DCT GOVIT NORAK6
Aircraft B738/M-SDE2E3FGHIRWXY/LB1

Departure

Time 2026-05-06 01:06
Airport Region of Waterloo International Airport (CYKF)

Arrival

Time 2026-05-06 02:59
Airport Winnipeg / James Armstrong Richardson International Airport (CYWG)
Time Latitude Longitude Altitude Speed Heading
2026-05-06 00:47 43.45645 -80.38547 1035 ft 0 kts 211°
2026-05-06 00:50 43.45646 -80.38547 1035 ft 0 kts 211°
2026-05-06 00:53 43.45650 -80.38544 1035 ft 2 kts 211°
2026-05-06 00:53 43.45663 -80.38532 1035 ft 2 kts 222°
2026-05-06 00:53 43.45677 -80.38515 1035 ft 4 kts 222°
2026-05-06 00:53 43.45685 -80.38489 1035 ft 0 kts 309°
2026-05-06 00:57 43.45691 -80.38498 1035 ft 7 kts 310°
2026-05-06 00:57 43.45744 -80.38575 1036 ft 12 kts 335°
2026-05-06 00:57 43.45773 -80.38550 1036 ft 8 kts 57°
2026-05-06 00:58 43.45802 -80.38477 1036 ft 9 kts 62°
2026-05-06 00:58 43.45836 -80.38368 1036 ft 16 kts 67°
2026-05-06 00:58 43.45885 -80.38226 1038 ft 16 kts 63°
2026-05-06 00:58 43.45931 -80.38088 1040 ft 16 kts 60°
2026-05-06 00:59 43.45991 -80.37900 1043 ft 25 kts 66°
2026-05-06 00:59 43.46064 -80.37687 1046 ft 24 kts 65°
2026-05-06 00:59 43.46130 -80.37486 1049 ft 23 kts 61°
2026-05-06 00:59 43.46196 -80.37294 1051 ft 22 kts 66°
2026-05-06 01:00 43.46259 -80.37107 1054 ft 21 kts 67°
2026-05-06 01:00 43.46321 -80.36925 1057 ft 21 kts 68°
2026-05-06 01:00 43.46381 -80.36747 1060 ft 20 kts 66°
2026-05-06 01:00 43.46450 -80.36587 1061 ft 20 kts 32°
2026-05-06 01:01 43.46486 -80.36570 1061 ft 4 kts 13°
2026-05-06 01:01 43.46499 -80.36566 1062 ft 0 kts 14°
2026-05-06 01:03 43.46510 -80.36563 1062 ft 7 kts 11°
2026-05-06 01:03 43.46579 -80.36594 1062 ft 12 kts 310°
2026-05-06 01:04 43.46574 -80.36672 1060 ft 0 kts 245°
2026-05-06 01:05 43.46574 -80.36673 1060 ft 1 kts 245°
2026-05-06 01:05 43.46514 -80.36849 1058 ft 54 kts 246°
2026-05-06 01:05 43.46219 -80.37714 1045 ft 142 kts 246°
2026-05-06 01:05 43.45723 -80.39210 1401 ft 189 kts 245°
2026-05-06 01:06 43.45128 -80.40946 2236 ft 211 kts 243°
2026-05-06 01:06 43.44061 -80.42490 2835 ft 240 kts 207°
2026-05-06 01:06 43.42351 -80.42981 3424 ft 266 kts 186°
2026-05-06 01:06 43.40509 -80.43113 3523 ft 260 kts 183°
2026-05-06 01:07 43.38728 -80.43152 3642 ft 254 kts 182°
2026-05-06 01:07 43.36983 -80.43169 3763 ft 255 kts 182°
2026-05-06 01:07 43.35212 -80.43199 3894 ft 254 kts 183°
2026-05-06 01:07 43.33433 -80.43259 3989 ft 257 kts 184°
2026-05-06 01:08 43.31652 -80.43349 4285 ft 251 kts 185°
2026-05-06 01:08 43.29969 -80.43793 4951 ft 245 kts 215°
2026-05-06 01:08 43.28997 -80.45564 5637 ft 233 kts 256°
2026-05-06 01:08 43.28936 -80.47755 6323 ft 232 kts 280°
2026-05-06 01:09 43.29665 -80.49729 6957 ft 238 kts 306°
2026-05-06 01:09 43.30948 -80.51207 7617 ft 243 kts 318°
2026-05-06 01:09 43.32410 -80.52509 8297 ft 257 kts 320°
2026-05-06 01:09 43.33913 -80.53780 8950 ft 258 kts 319°
2026-05-06 01:10 43.35445 -80.55072 9615 ft 259 kts 317°
2026-05-06 01:10 43.36979 -80.56375 10268 ft 260 kts 317°
2026-05-06 01:10 43.38524 -80.57704 10897 ft 267 kts 317°
2026-05-06 01:10 43.40145 -80.59122 11607 ft 285 kts 317°
2026-05-06 01:11 43.41869 -80.60638 12330 ft 302 kts 318°
2026-05-06 01:11 43.43689 -80.62240 13069 ft 319 kts 318°
2026-05-06 01:11 43.45601 -80.63922 13797 ft 333 kts 319°
2026-05-06 01:11 43.47566 -80.65651 14443 ft 346 kts 319°
2026-05-06 01:12 43.49627 -80.67464 15114 ft 358 kts 319°
2026-05-06 01:12 43.51757 -80.69339 15796 ft 369 kts 319°
2026-05-06 01:12 43.53947 -80.71269 16492 ft 378 kts 319°
2026-05-06 01:12 43.56182 -80.73240 17184 ft 386 kts 318°
2026-05-06 01:13 43.58463 -80.75256 17860 ft 393 kts 318°
2026-05-06 01:13 43.60787 -80.77313 18486 ft 400 kts 318°
2026-05-06 01:13 43.63145 -80.79403 19082 ft 405 kts 318°
2026-05-06 01:13 43.65532 -80.81520 19686 ft 410 kts 318°
2026-05-06 01:14 43.70336 -80.85788 20927 ft 416 kts 318°
2026-05-06 01:14 43.72778 -80.87960 21538 ft 419 kts 318°
2026-05-06 01:14 43.75238 -80.90154 22111 ft 422 kts 318°
2026-05-06 01:15 43.77711 -80.92361 22706 ft 425 kts 318°
2026-05-06 01:15 43.80202 -80.94586 23303 ft 426 kts 318°
2026-05-06 01:15 43.82700 -80.96818 23834 ft 427 kts 318°
2026-05-06 01:15 43.85197 -80.99051 24360 ft 428 kts 317°
2026-05-06 01:16 43.87696 -81.01288 24881 ft 427 kts 317°
2026-05-06 01:16 43.90158 -81.03494 25409 ft 427 kts 317°
2026-05-06 01:16 43.92644 -81.05725 25950 ft 425 kts 317°
2026-05-06 01:16 43.95122 -81.07950 26501 ft 424 kts 317°
2026-05-06 01:17 43.97590 -81.10169 27064 ft 422 kts 316°
2026-05-06 01:17 44.00044 -81.12377 27638 ft 419 kts 316°
2026-05-06 01:17 44.02484 -81.14577 28216 ft 417 kts 316°
2026-05-06 01:17 44.04905 -81.16761 28817 ft 413 kts 315°
2026-05-06 01:18 44.07309 -81.18933 29425 ft 410 kts 315°
2026-05-06 01:18 44.09688 -81.21083 30014 ft 406 kts 315°
2026-05-06 01:18 44.12058 -81.23230 30326 ft 408 kts 315°
2026-05-06 01:18 44.14412 -81.25373 30579 ft 411 kts 315°
2026-05-06 01:19 44.16564 -81.27332 30811 ft 414 kts 315°
2026-05-06 01:19 44.18919 -81.29475 31058 ft 416 kts 315°
2026-05-06 01:19 44.21345 -81.31682 31323 ft 418 kts 315°
2026-05-06 01:19 44.23792 -81.33909 31590 ft 420 kts 315°
2026-05-06 01:20 44.26243 -81.36140 31839 ft 422 kts 315°
2026-05-06 01:20 44.28704 -81.38382 32111 ft 423 kts 315°
2026-05-06 01:20 44.31169 -81.40629 32388 ft 424 kts 315°
2026-05-06 01:20 44.33603 -81.42850 32662 ft 424 kts 315°
2026-05-06 01:21 44.36058 -81.45089 32866 ft 420 kts 315°
2026-05-06 01:21 44.38493 -81.47311 32870 ft 418 kts 315°
2026-05-06 01:21 44.43352 -81.51764 32880 ft 418 kts 315°
2026-05-06 01:22 44.48211 -81.56231 32892 ft 418 kts 315°
2026-05-06 01:22 44.53042 -81.60680 32900 ft 418 kts 315°
2026-05-06 01:23 44.57902 -81.65161 32897 ft 418 kts 315°
2026-05-06 01:23 44.62797 -81.69577 32887 ft 418 kts 316°
2026-05-06 01:24 44.67687 -81.73969 32898 ft 416 kts 315°
2026-05-06 01:24 44.72486 -81.78383 32901 ft 416 kts 315°
2026-05-06 01:25 44.77307 -81.82880 32911 ft 416 kts 315°
2026-05-06 01:25 44.82126 -81.87392 32919 ft 416 kts 315°
2026-05-06 01:26 44.86930 -81.91897 32891 ft 414 kts 314°
2026-05-06 01:26 44.91686 -81.96365 32903 ft 413 kts 314°
2026-05-06 01:27 44.96452 -82.00852 32905 ft 411 kts 314°
2026-05-06 01:27 45.01198 -82.05329 32904 ft 410 kts 314°
2026-05-06 01:28 45.05932 -82.09806 32905 ft 409 kts 314°
2026-05-06 01:28 45.10655 -82.14280 32901 ft 408 kts 314°
2026-05-06 01:29 45.15334 -82.18722 32898 ft 407 kts 314°
2026-05-06 01:29 45.20039 -82.23197 32901 ft 407 kts 313°
2026-05-06 01:30 45.25129 -82.28049 32899 ft 407 kts 313°
2026-05-06 01:30 45.34508 -82.37017 32897 ft 406 kts 313°
2026-05-06 01:31 45.42157 -82.47447 32912 ft 367 kts 289°
2026-05-06 01:31 45.45135 -82.53494 32888 ft 389 kts 304°
2026-05-06 01:31 45.49174 -82.58684 32893 ft 388 kts 303°
2026-05-06 01:32 45.52598 -82.64441 32893 ft 377 kts 296°
2026-05-06 01:32 45.55694 -82.70460 32888 ft 377 kts 296°
2026-05-06 01:32 45.62081 -82.82405 32883 ft 379 kts 297°
2026-05-06 01:33 45.68595 -82.94285 32894 ft 381 kts 297°
2026-05-06 01:33 45.75082 -83.06154 32898 ft 382 kts 297°
2026-05-06 01:34 45.81618 -83.18168 32899 ft 383 kts 297°
2026-05-06 01:34 45.88165 -83.30254 32903 ft 384 kts 297°
2026-05-06 01:35 45.94793 -83.42402 32851 ft 386 kts 297°
2026-05-06 01:35 46.01319 -83.54691 32887 ft 393 kts 298°
2026-05-06 01:36 46.08022 -83.67240 32880 ft 398 kts 298°
2026-05-06 01:36 46.14781 -83.79932 32879 ft 400 kts 298°
2026-05-06 01:37 46.21562 -83.92731 32894 ft 402 kts 298°
2026-05-06 01:37 46.28318 -84.05537 32899 ft 405 kts 299°
2026-05-06 01:38 46.35009 -84.18668 32905 ft 405 kts 297°
2026-05-06 01:38 46.41466 -84.32073 32882 ft 406 kts 297°
2026-05-06 01:39 46.46290 -84.43658 32888 ft 402 kts 292°
2026-05-06 01:39 46.52560 -84.60361 32889 ft 404 kts 293°
2026-05-06 01:40 46.58068 -84.74529 32902 ft 406 kts 293°
2026-05-06 01:40 46.63630 -84.88855 32909 ft 408 kts 293°
2026-05-06 01:41 46.69194 -85.03273 32907 ft 409 kts 293°
2026-05-06 01:41 46.73820 -85.15318 32909 ft 410 kts 293°
2026-05-06 01:42 46.79612 -85.30477 32909 ft 412 kts 294°
2026-05-06 01:42 46.85192 -85.45160 32913 ft 415 kts 294°
2026-05-06 01:43 46.90783 -85.59956 32909 ft 417 kts 294°
2026-05-06 01:43 46.96377 -85.74837 32911 ft 418 kts 294°
2026-05-06 01:44 47.01931 -85.89698 32911 ft 419 kts 294°
2026-05-06 01:44 47.07521 -86.04735 32909 ft 421 kts 294°
2026-05-06 01:45 47.11510 -86.15520 32907 ft 421 kts 294°
2026-05-06 01:45 47.14302 -86.23093 32904 ft 422 kts 294°
2026-05-06 01:46 47.17072 -86.30630 32905 ft 422 kts 294°
2026-05-06 01:46 47.19860 -86.38235 32906 ft 423 kts 294°
2026-05-06 01:47 47.22645 -86.45854 32905 ft 423 kts 294°
2026-05-06 01:47 47.25426 -86.53484 32900 ft 423 kts 294°
2026-05-06 01:48 47.28185 -86.61075 32901 ft 423 kts 294°
2026-05-06 01:48 47.30961 -86.68735 32903 ft 424 kts 294°
2026-05-06 01:49 47.33732 -86.76406 32905 ft 424 kts 294°
2026-05-06 01:49 47.36502 -86.84095 32900 ft 425 kts 294°
2026-05-06 01:50 47.39269 -86.91796 32904 ft 425 kts 294°
2026-05-06 01:50 47.42014 -86.99461 32902 ft 425 kts 294°
2026-05-06 01:51 47.44776 -87.07194 32901 ft 426 kts 294°
2026-05-06 01:51 47.47534 -87.14940 32904 ft 426 kts 294°
2026-05-06 01:52 47.50285 -87.22686 32898 ft 426 kts 294°
2026-05-06 01:52 47.53019 -87.30412 32903 ft 427 kts 294°
2026-05-06 01:53 47.55758 -87.38171 32898 ft 427 kts 294°
2026-05-06 01:53 47.58504 -87.45972 32898 ft 428 kts 294°
2026-05-06 01:54 47.61247 -87.53792 32903 ft 428 kts 294°
2026-05-06 01:54 47.63966 -87.61563 32890 ft 428 kts 294°
2026-05-06 01:55 47.66702 -87.69409 32893 ft 428 kts 294°
2026-05-06 01:55 47.69394 -87.77142 32822 ft 418 kts 294°
2026-05-06 01:56 47.70723 -87.80972 32689 ft 417 kts 294°
2026-05-06 01:56 47.72048 -87.84799 32563 ft 418 kts 294°
2026-05-06 01:56 47.73377 -87.88641 32433 ft 418 kts 294°
2026-05-06 01:56 47.74695 -87.92460 32307 ft 418 kts 294°
2026-05-06 01:57 47.76023 -87.96310 32184 ft 419 kts 294°
2026-05-06 01:57 47.77331 -88.00110 32057 ft 419 kts 294°
2026-05-06 01:57 47.78660 -88.03975 31945 ft 420 kts 294°
2026-05-06 01:57 47.79991 -88.07849 31902 ft 420 kts 294°
2026-05-06 01:58 47.82640 -88.15577 31897 ft 419 kts 294°
2026-05-06 01:58 47.85284 -88.23320 31897 ft 420 kts 294°
2026-05-06 01:59 47.87932 -88.31095 31897 ft 422 kts 294°
2026-05-06 01:59 47.90565 -88.38849 31891 ft 423 kts 294°
2026-05-06 02:00 47.93216 -88.46677 31893 ft 423 kts 294°
2026-05-06 02:00 47.95865 -88.54527 31892 ft 424 kts 294°
2026-05-06 02:01 47.98494 -88.62338 31895 ft 424 kts 294°
2026-05-06 02:01 48.01135 -88.70211 31891 ft 424 kts 294°
2026-05-06 02:02 48.03773 -88.78097 31890 ft 425 kts 294°
2026-05-06 02:02 48.06407 -88.85996 31898 ft 425 kts 294°
2026-05-06 02:03 48.09067 -88.94005 31905 ft 436 kts 294°
2026-05-06 02:03 48.11757 -89.02123 31896 ft 438 kts 294°
2026-05-06 02:04 48.14455 -89.10287 31889 ft 437 kts 294°
2026-05-06 02:04 48.17142 -89.18449 31890 ft 437 kts 294°
2026-05-06 02:05 48.19823 -89.26618 31887 ft 437 kts 294°
2026-05-06 02:05 48.22500 -89.34802 31886 ft 437 kts 294°
2026-05-06 02:06 48.25157 -89.42946 31881 ft 438 kts 294°
2026-05-06 02:06 48.27554 -89.51322 31885 ft 437 kts 288°
2026-05-06 02:07 48.29562 -89.59928 31889 ft 436 kts 287°
2026-05-06 02:07 48.31552 -89.68482 31908 ft 437 kts 288°
2026-05-06 02:08 48.33618 -89.77076 31912 ft 437 kts 288°
2026-05-06 02:08 48.35711 -89.85662 31922 ft 438 kts 289°
2026-05-06 02:09 48.37808 -89.94268 31921 ft 438 kts 289°
2026-05-06 02:09 48.39896 -90.02884 31923 ft 439 kts 288°
2026-05-06 02:10 48.41967 -90.11467 31919 ft 439 kts 288°
2026-05-06 02:10 48.44046 -90.20121 31928 ft 440 kts 288°
2026-05-06 02:11 48.46122 -90.28795 31918 ft 440 kts 288°
2026-05-06 02:11 48.48192 -90.37480 31923 ft 441 kts 288°
2026-05-06 02:12 48.50258 -90.46183 31938 ft 441 kts 288°
2026-05-06 02:12 48.52305 -90.54840 31942 ft 441 kts 288°
2026-05-06 02:13 48.54361 -90.63569 31932 ft 442 kts 288°
2026-05-06 02:13 48.56412 -90.72313 31932 ft 442 kts 288°
2026-05-06 02:14 48.58460 -90.81077 31936 ft 443 kts 288°
2026-05-06 02:14 48.60501 -90.89848 31937 ft 443 kts 288°
2026-05-06 02:15 48.62524 -90.98579 31938 ft 443 kts 288°
2026-05-06 02:15 48.64556 -91.07384 31936 ft 444 kts 288°
2026-05-06 02:16 48.66584 -91.16208 31942 ft 444 kts 288°
2026-05-06 02:16 48.68606 -91.25042 31943 ft 445 kts 288°
2026-05-06 02:17 48.70623 -91.33891 31945 ft 445 kts 288°
2026-05-06 02:17 48.72617 -91.42678 31946 ft 445 kts 288°
2026-05-06 02:18 48.74610 -91.51494 31947 ft 445 kts 288°
2026-05-06 02:18 48.76612 -91.60380 31951 ft 446 kts 288°
2026-05-06 02:19 48.78641 -91.69264 31954 ft 446 kts 289°
2026-05-06 02:19 48.80757 -91.78122 31956 ft 447 kts 289°
2026-05-06 02:20 48.83919 -91.91356 31956 ft 447 kts 289°
2026-05-06 02:21 48.86016 -92.00244 31960 ft 447 kts 289°
2026-05-06 02:21 48.88103 -92.09146 31959 ft 448 kts 289°
2026-05-06 02:22 48.90186 -92.18066 31964 ft 448 kts 289°
2026-05-06 02:22 48.92264 -92.27004 31965 ft 449 kts 289°
2026-05-06 02:23 48.94324 -92.35897 31965 ft 449 kts 289°
2026-05-06 02:23 48.96392 -92.44863 31970 ft 449 kts 289°
2026-05-06 02:24 48.98455 -92.53846 31966 ft 450 kts 289°
2026-05-06 02:24 49.00513 -92.62839 31975 ft 450 kts 289°
2026-05-06 02:25 49.02565 -92.71850 31971 ft 450 kts 289°
2026-05-06 02:25 49.04598 -92.80813 31975 ft 451 kts 289°
2026-05-06 02:26 49.06638 -92.89850 31979 ft 451 kts 289°
2026-05-06 02:27 49.10603 -93.07518 31980 ft 451 kts 289°
2026-05-06 02:27 49.12625 -93.16586 31979 ft 452 kts 288°
2026-05-06 02:28 49.14643 -93.25675 31982 ft 452 kts 288°
2026-05-06 02:28 49.16653 -93.34766 31984 ft 452 kts 288°
2026-05-06 02:29 49.18659 -93.43875 31985 ft 452 kts 288°
2026-05-06 02:29 49.20608 -93.52948 31981 ft 452 kts 287°
2026-05-06 02:30 49.22161 -93.62266 31988 ft 452 kts 283°
2026-05-06 02:30 49.23523 -93.71666 31984 ft 453 kts 283°
2026-05-06 02:31 49.24930 -93.81058 31987 ft 453 kts 283°
2026-05-06 02:31 49.26385 -93.90442 31992 ft 453 kts 284°
2026-05-06 02:32 49.27841 -93.99767 31995 ft 453 kts 284°
2026-05-06 02:32 49.29298 -94.09157 31996 ft 453 kts 284°
2026-05-06 02:33 49.30741 -94.18519 32003 ft 453 kts 283°
2026-05-06 02:33 49.31219 -94.21637 32003 ft 454 kts 283°
2026-05-06 02:34 49.33605 -94.37292 32011 ft 454 kts 283°
2026-05-06 02:34 49.35029 -94.46716 32016 ft 454 kts 283°
2026-05-06 02:35 49.36448 -94.56155 32022 ft 454 kts 283°
2026-05-06 02:35 49.37859 -94.65596 32026 ft 454 kts 283°
2026-05-06 02:36 49.39242 -94.74910 32022 ft 446 kts 283°
2026-05-06 02:36 49.40598 -94.84100 32023 ft 440 kts 283°
2026-05-06 02:37 49.41949 -94.93307 32035 ft 442 kts 283°
2026-05-06 02:37 49.43294 -95.02521 32042 ft 442 kts 283°
2026-05-06 02:38 49.44624 -95.11693 32043 ft 443 kts 283°
2026-05-06 02:38 49.45958 -95.20944 32044 ft 444 kts 283°
2026-05-06 02:39 49.47287 -95.30224 31926 ft 446 kts 283°
2026-05-06 02:39 49.47950 -95.34875 31730 ft 444 kts 283°
2026-05-06 02:39 49.48608 -95.39504 31477 ft 443 kts 283°
2026-05-06 02:39 49.49266 -95.44143 31229 ft 445 kts 283°
2026-05-06 02:40 49.49916 -95.48746 30993 ft 446 kts 283°
2026-05-06 02:40 49.50574 -95.53413 30695 ft 448 kts 283°
2026-05-06 02:40 49.51233 -95.58104 30296 ft 446 kts 283°
2026-05-06 02:40 49.51879 -95.62728 29801 ft 438 kts 283°
2026-05-06 02:41 49.52504 -95.67212 29214 ft 432 kts 283°
2026-05-06 02:41 49.53130 -95.71706 28608 ft 427 kts 283°
2026-05-06 02:41 49.53746 -95.76145 27997 ft 422 kts 283°
2026-05-06 02:41 49.54357 -95.80549 27403 ft 418 kts 284°
2026-05-06 02:42 49.55092 -95.84854 26816 ft 413 kts 289°
2026-05-06 02:42 49.56035 -95.89010 26239 ft 409 kts 292°
2026-05-06 02:42 49.57131 -95.93028 25682 ft 405 kts 295°
2026-05-06 02:42 49.58325 -95.96927 25132 ft 401 kts 297°
2026-05-06 02:43 49.59529 -96.00722 24598 ft 398 kts 297°
2026-05-06 02:43 49.60714 -96.04564 24080 ft 396 kts 296°
2026-05-06 02:43 49.61851 -96.08420 23534 ft 394 kts 295°
2026-05-06 02:43 49.62947 -96.12281 22916 ft 392 kts 295°
2026-05-06 02:44 49.64016 -96.16142 22291 ft 390 kts 295°
2026-05-06 02:44 49.65064 -96.19978 21691 ft 386 kts 294°
2026-05-06 02:44 49.66098 -96.23783 21105 ft 383 kts 294°
2026-05-06 02:44 49.67123 -96.27564 20526 ft 380 kts 294°
2026-05-06 02:45 49.68140 -96.31314 19960 ft 377 kts 294°
2026-05-06 02:45 49.69135 -96.34988 19409 ft 372 kts 294°
2026-05-06 02:45 49.70118 -96.38622 18850 ft 362 kts 295°
2026-05-06 02:45 49.71077 -96.42166 18307 ft 354 kts 295°
2026-05-06 02:46 49.72015 -96.45637 17687 ft 346 kts 295°
2026-05-06 02:46 49.72929 -96.49029 17081 ft 337 kts 295°
2026-05-06 02:46 49.73678 -96.52423 16458 ft 332 kts 283°
2026-05-06 02:46 49.73693 -96.55971 15858 ft 332 kts 261°
2026-05-06 02:47 49.72818 -96.59233 15287 ft 332 kts 238°
2026-05-06 02:47 49.71184 -96.61732 14725 ft 333 kts 214°
2026-05-06 02:47 49.69118 -96.63295 14199 ft 329 kts 204°
2026-05-06 02:47 49.66999 -96.64572 13627 ft 325 kts 202°
2026-05-06 02:48 49.64920 -96.65778 13027 ft 322 kts 202°
2026-05-06 02:48 49.62830 -96.66975 12425 ft 319 kts 202°
2026-05-06 02:48 49.60771 -96.68195 11830 ft 314 kts 210°
2026-05-06 02:48 49.59105 -96.70250 11234 ft 304 kts 236°
2026-05-06 02:49 49.58206 -96.73092 10668 ft 291 kts 262°
2026-05-06 02:49 49.57993 -96.76144 10139 ft 284 kts 271°
2026-05-06 02:49 49.57931 -96.79157 9553 ft 281 kts 272°
2026-05-06 02:49 49.57886 -96.82157 8950 ft 279 kts 272°
2026-05-06 02:50 49.57846 -96.85074 8368 ft 277 kts 272°
2026-05-06 02:50 49.57808 -96.88033 7787 ft 275 kts 272°
2026-05-06 02:50 49.57773 -96.90965 7241 ft 273 kts 272°
2026-05-06 02:50 49.57741 -96.93873 6702 ft 270 kts 272°
2026-05-06 02:51 49.57725 -96.96755 6143 ft 267 kts 276°
2026-05-06 02:51 49.58197 -96.99440 5562 ft 256 kts 306°
2026-05-06 02:51 49.59497 -97.01069 5175 ft 236 kts 342°
2026-05-06 02:51 49.61071 -97.01289 4819 ft 221 kts
2026-05-06 02:52 49.62562 -97.01259 4425 ft 208 kts 357°
2026-05-06 02:52 49.63933 -97.01449 4153 ft 193 kts 352°
2026-05-06 02:52 49.65237 -97.01756 3864 ft 187 kts 349°
2026-05-06 02:52 49.66511 -97.02126 3610 ft 186 kts 348°
2026-05-06 02:53 49.67772 -97.02543 3362 ft 187 kts 347°
2026-05-06 02:53 49.69029 -97.02997 3107 ft 183 kts 346°
2026-05-06 02:53 49.70240 -97.03468 3029 ft 178 kts 345°
2026-05-06 02:53 49.71435 -97.03954 3016 ft 177 kts 345°
2026-05-06 02:54 49.72629 -97.04453 3012 ft 178 kts 345°
2026-05-06 02:54 49.73825 -97.04960 3014 ft 178 kts 344°
2026-05-06 02:54 49.75018 -97.05471 3005 ft 178 kts 344°
2026-05-06 02:54 49.76196 -97.05977 3005 ft 178 kts 344°
2026-05-06 02:55 49.77393 -97.06524 3008 ft 181 kts 337°
2026-05-06 02:55 49.78348 -97.07678 3017 ft 170 kts 317°
2026-05-06 02:55 49.79202 -97.08919 2947 ft 169 kts 321°
2026-05-06 02:55 49.80100 -97.10088 2872 ft 169 kts 322°
2026-05-06 02:56 49.81000 -97.11263 2726 ft 169 kts 321°
2026-05-06 02:56 49.81885 -97.12436 2598 ft 164 kts 321°
2026-05-06 02:56 49.82715 -97.13549 2435 ft 151 kts 321°
2026-05-06 02:56 49.83472 -97.14563 2401 ft 142 kts 321°
2026-05-06 02:57 49.84190 -97.15548 2387 ft 133 kts 320°
2026-05-06 02:57 49.84889 -97.16510 2182 ft 138 kts 320°
2026-05-06 02:57 49.85621 -97.17477 2001 ft 139 kts 321°
2026-05-06 02:57 49.86339 -97.18456 1821 ft 138 kts 318°
2026-05-06 02:58 49.87064 -97.19471 1536 ft 142 kts 319°
2026-05-06 02:58 49.87805 -97.20471 1313 ft 138 kts 319°
2026-05-06 02:58 49.88502 -97.21426 1102 ft 130 kts 318°
2026-05-06 02:58 49.89202 -97.22371 926 ft 138 kts 319°
2026-05-06 02:59 49.89911 -97.23348 788 ft 129 kts 319°
2026-05-06 02:59 49.90490 -97.24127 787 ft 90 kts 319°
2026-05-06 02:59 49.90806 -97.24556 789 ft 38 kts 318°
2026-05-06 02:59 49.91006 -97.24828 787 ft 37 kts 319°
2026-05-06 03:00 49.91181 -97.25069 792 ft 31 kts 318°
2026-05-06 03:00 49.91271 -97.25118 795 ft 10 kts 36°
2026-05-06 03:00 49.91317 -97.25038 796 ft 10 kts 48°
2026-05-06 03:00 49.91347 -97.24944 794 ft 11 kts 88°
2026-05-06 03:01 49.91336 -97.24813 791 ft 14 kts 98°
2026-05-06 03:01 49.91316 -97.24625 789 ft 21 kts 99°
2026-05-06 03:01 49.91289 -97.24358 785 ft 27 kts 97°
2026-05-06 03:01 49.91267 -97.24090 783 ft 17 kts 99°
2026-05-06 03:02 49.91249 -97.23917 786 ft 16 kts 99°
2026-05-06 03:02 49.91223 -97.23750 788 ft 16 kts 106°
2026-05-06 03:02 49.91188 -97.23599 787 ft 15 kts 142°
2026-05-06 03:02 49.91097 -97.23530 788 ft 14 kts 155°
2026-05-06 03:03 49.91006 -97.23464 786 ft 15 kts 155°
2026-05-06 03:03 49.90910 -97.23394 784 ft 15 kts 153°
2026-05-06 03:03 49.90870 -97.23263 784 ft 15 kts 83°
2026-05-06 03:03 49.90879 -97.23107 783 ft 14 kts 85°
2026-05-06 03:04 49.90887 -97.22961 783 ft 14 kts 85°
2026-05-06 03:04 49.90871 -97.22824 783 ft 13 kts 125°
2026-05-06 03:04 49.90819 -97.22711 783 ft 13 kts 127°
2026-05-06 03:04 49.90773 -97.22611 781 ft 8 kts 119°
2026-05-06 03:05 49.90763 -97.22524 781 ft 8 kts 90°
2026-05-06 03:05 49.90753 -97.22441 782 ft 8 kts 129°
2026-05-06 03:05 49.90700 -97.22422 783 ft 8 kts 176°
2026-05-06 03:05 49.90672 -97.22418 784 ft 0 kts 176°